| time (UTC) | temp F | wind direction | speed MPH | gust MPH | rain 1hr in | rain 24hr in | rain mn in | humidity % | barometer mb |
| 20260510101805 | 55 | 265 | 3.0 | 5.0 | 0.00 | 0.00 | 0.00 | 59 | 1014.9 |
| 20260510101304 | 55 | 264 | 2.0 | 3.0 | 0.00 | 0.00 | 0.00 | 59 | 1014.8 |
| 20260510100305 | 55 | 233 | 2.0 | 3.0 | 0.00 | 0.00 | 0.00 | 58 | 1014.7 |
| 20260510095804 | 55 | 274 | 1.0 | 2.0 | 0.00 | 0.00 | 0.00 | 58 | 1014.7 |
| 20260510095306 | 55 | 254 | 2.0 | 3.0 | 0.00 | 0.00 | 0.00 | 58 | 1014.7 |
| 20260510094805 | 55 | 231 | 1.0 | 2.0 | 0.00 | 0.00 | 0.00 | 59 | 1014.7 |
| 20260510094304 | 54 | 198 | 1.0 | 1.0 | 0.00 | 0.00 | 0.00 | 59 | 1014.7 |
| 20260510093304 | 54 | 144 | 1.0 | 2.0 | 0.00 | 0.00 | 0.00 | 60 | 1014.5 |
| 20260510092805 | 54 | 152 | 2.0 | 2.0 | 0.00 | 0.00 | 0.00 | 60 | 1014.6 |
| 20260510092306 | 54 | 149 | 2.0 | 3.0 | 0.00 | 0.00 | 0.00 | 61 | 1014.6 |
| 20260510091805 | 54 | 159 | 2.0 | 3.0 | 0.00 | 0.00 | 0.00 | 60 | 1014.6 |
| 20260510090805 | 54 | 150 | 2.0 | 2.0 | 0.00 | 0.00 | 0.00 | 61 | 1014.6 |
| 20260510090305 | 54 | 151 | 2.0 | 2.0 | 0.00 | 0.00 | 0.00 | 60 | 1014.7 |
| 20260510085805 | 55 | 148 | 2.0 | 2.0 | 0.00 | 0.00 | 0.00 | 59 | 1014.7 |
| 20260510085306 | 56 | 154 | 2.0 | 2.0 | 0.00 | 0.00 | 0.00 | 58 | 1014.7 |
| 20260510084805 | 56 | 151 | 2.0 | 2.0 | 0.00 | 0.00 | 0.00 | 57 | 1014.7 |
| 20260510084304 | 57 | 142 | 1.0 | 2.0 | 0.00 | 0.00 | 0.00 | 56 | 1014.7 |
| 20260510083805 | 58 | 184 | 1.0 | 3.0 | 0.00 | 0.00 | 0.00 | 54 | 1014.8 |
| 20260510082804 | 58 | 282 | 2.0 | 3.0 | 0.00 | 0.00 | 0.00 | 54 | 1014.8 |
| 20260510082306 | 58 | 247 | 1.0 | 2.0 | 0.00 | 0.00 | 0.00 | 54 | 1014.9 |
| 20260510081805 | 58 | 220 | 1.0 | 3.0 | 0.00 | 0.00 | 0.00 | 54 | 1014.9 |
| 20260510081305 | 58 | 187 | 1.0 | 2.0 | 0.00 | 0.00 | 0.00 | 54 | 1014.9 |
| 20260510080804 | 58 | 237 | 1.0 | 2.0 | 0.00 | 0.00 | 0.00 | 54 | 1014.8 |
| 20260510080305 | 58 | 215 | 0.0 | 2.0 | 0.00 | 0.00 | 0.00 | 54 | 1014.9 |
| 20260510075306 | 58 | 143 | 1.0 | 2.0 | 0.00 | 0.00 | 0.00 | 54 | 1015.0 |
| 20260510074804 | 58 | 146 | 1.0 | 2.0 | 0.00 | 0.00 | 0.00 | 54 | 1015.0 |
| 20260510074305 | 57 | 142 | 2.0 | 2.0 | 0.00 | 0.00 | 0.00 | 54 | 1015.0 |
| 20260510073804 | 57 | 144 | 1.0 | 2.0 | 0.00 | 0.00 | 0.00 | 54 | 1015.0 |
| 20260510073304 | 57 | 153 | 2.0 | 3.0 | 0.00 | 0.00 | 0.00 | 55 | 1015.0 |
| 20260510071804 | 58 | 140 | 2.0 | 2.0 | 0.00 | 0.00 | 0.00 | 52 | 1015.0 |
| 20260510071304 | 59 | 141 | 2.0 | 2.0 | 0.00 | 0.00 | 0.00 | 52 | 1015.0 |
| 20260510070804 | 59 | 136 | 1.0 | 2.0 | 0.00 | 0.00 | 0.00 | 50 | 1015.0 |
| 20260510070305 | 60 | 151 | 1.0 | 2.0 | 0.00 | 0.00 | 0.00 | 49 | 1015.0 |
| 20260510065805 | 60 | 130 | 1.0 | 2.0 | 0.00 | 0.00 | 0.00 | 49 | 1015.0 |
| 20260510064804 | 60 | 139 | 2.0 | 2.0 | 0.00 | 0.00 | 0.00 | 48 | 1014.9 |
| 20260510064304 | 61 | 151 | 2.0 | 2.0 | 0.00 | 0.00 | 0.00 | 47 | 1015.0 |
| 20260510062804 | 61 | 171 | 2.0 | 3.0 | 0.00 | 0.00 | 0.00 | 46 | 1014.8 |
| 20260510061805 | 61 | 152 | 3.0 | 5.0 | 0.00 | 0.00 | 0.00 | 46 | 1014.7 |
| 20260510060805 | 63 | 264 | 3.0 | 7.0 | 0.00 | 0.00 | 0.00 | 42 | 1014.6 |
| 20260510060304 | 64 | 287 | 3.0 | 7.0 | 0.00 | 0.00 | 0.00 | 41 | 1014.6 |
| 20260510055804 | 63 | 270 | 2.0 | 5.0 | 0.00 | 0.00 | 0.00 | 42 | 1014.6 |
| 20260510055306 | 63 | 255 | 2.0 | 5.0 | 0.00 | 0.00 | 0.00 | 44 | 1014.6 |
| 20260510054804 | 62 | 272 | 3.0 | 6.0 | 0.00 | 0.00 | 0.00 | 44 | 1014.6 |
| 20260510054304 | 61 | 147 | 1.0 | 2.0 | 0.00 | 0.00 | 0.00 | 47 | 1014.6 |
| 20260510053804 | 60 | 192 | 1.0 | 3.0 | 0.00 | 0.00 | 0.00 | 47 | 1014.6 |
| 20260510053304 | 60 | 165 | 2.0 | 3.0 | 0.00 | 0.00 | 0.00 | 49 | 1014.6 |
| 20260510052805 | 60 | 146 | 2.0 | 3.0 | 0.00 | 0.00 | 0.00 | 48 | 1014.5 |
| 20260510052306 | 62 | 144 | 3.0 | 3.0 | 0.00 | 0.00 | 0.00 | 47 | 1014.4 |
| 20260510051804 | 62 | 243 | 1.0 | 2.0 | 0.00 | 0.00 | 0.00 | 46 | 1014.4 |
| 20260510051305 | 63 | 137 | 2.0 | 3.0 | 0.00 | 0.00 | 0.00 | 46 | 1014.3 |
| 20260510050804 | 63 | 165 | 2.0 | 3.0 | 0.00 | 0.00 | 0.00 | 45 | 1014.3 |
| 20260510050304 | 64 | 152 | 2.0 | 2.0 | 0.00 | 0.00 | 0.00 | 44 | 1014.3 |
| 20260510045804 | 64 | 130 | 1.0 | 2.0 | 0.00 | 0.00 | 0.00 | 43 | 1014.3 |
| 20260510045306 | 64 | 169 | 1.0 | 1.0 | 0.00 | 0.00 | 0.00 | 42 | 1014.2 |
| 20260510043804 | 66 | 162 | 3.0 | 5.0 | 0.00 | 0.00 | 0.00 | 42 | 1014.0 |
| 20260510043305 | 70 | 159 | 2.0 | 6.0 | 0.00 | 0.00 | 0.00 | 36 | 1014.0 |
| 20260510042804 | 70 | 296 | 4.0 | 6.0 | 0.00 | 0.00 | 0.00 | 36 | 1014.0 |
| 20260510042306 | 69 | 282 | 2.0 | 5.0 | 0.00 | 0.00 | 0.00 | 36 | 1014.0 |
| 20260510041805 | 69 | 90 | 1.0 | 3.0 | 0.00 | 0.00 | 0.00 | 37 | 1014.0 |
| 20260510041304 | 70 | 263 | 3.0 | 6.0 | 0.00 | 0.00 | 0.00 | 36 | 1013.9 |
| 20260510040805 | 70 | 248 | 2.0 | 7.0 | 0.00 | 0.00 | 0.00 | 36 | 1013.7 |
| 20260510035805 | 69 | 266 | 3.0 | 6.0 | 0.00 | 0.00 | 0.00 | 36 | 1013.6 |
| 20260510034805 | 69 | 243 | 2.0 | 6.0 | 0.00 | 0.00 | 0.00 | 35 | 1013.5 |
| 20260510034304 | 68 | 207 | 2.0 | 5.0 | 0.00 | 0.00 | 0.00 | 34 | 1013.4 |
| 20260510033304 | 69 | 136 | 1.0 | 2.0 | 0.00 | 0.00 | 0.00 | 32 | 1013.3 |
| 20260510032804 | 71 | 200 | 1.0 | 3.0 | 0.00 | 0.00 | 0.00 | 31 | 1013.3 |
| 20260510032306 | 71 | 224 | 2.0 | 2.0 | 0.00 | 0.00 | 0.00 | 30 | 1013.4 |
| 20260510031804 | 72 | 230 | 2.0 | 5.0 | 0.00 | 0.00 | 0.00 | 29 | 1013.4 |
| 20260510031305 | 72 | 247 | 2.0 | 3.0 | 0.00 | 0.00 | 0.00 | 28 | 1013.4 |
| 20260510030805 | 71 | 216 | 1.0 | 2.0 | 0.00 | 0.00 | 0.00 | 29 | 1013.3 |
| 20260510030305 | 71 | 230 | 1.0 | 3.0 | 0.00 | 0.00 | 0.00 | 29 | 1013.4 |
| 20260510025805 | 71 | 214 | 1.0 | 2.0 | 0.00 | 0.00 | 0.00 | 33 | 1013.4 |
| 20260510025306 | 72 | 145 | 2.0 | 2.0 | 0.00 | 0.00 | 0.00 | 27 | 1013.3 |
| 20260510024808 | 72 | 154 | 2.0 | 2.0 | 0.00 | 0.00 | 0.00 | 30 | 1013.3 |
| 20260510024305 | 73 | 156 | 1.0 | 2.0 | 0.00 | 0.00 | 0.00 | 30 | 1013.3 |
| 20260510023304 | 73 | 156 | 1.0 | 2.0 | 0.00 | 0.00 | 0.00 | 29 | 1013.3 |
| 20260510022805 | 74 | 150 | 1.0 | 2.0 | 0.00 | 0.00 | 0.00 | 29 | 1013.2 |
| 20260510022306 | 75 | 153 | 1.0 | 1.0 | 0.00 | 0.00 | 0.00 | 28 | 1013.2 |
| 20260510021804 | 75 | 153 | 1.0 | 2.0 | 0.00 | 0.00 | 0.00 | 25 | 1013.2 |
| 20260510021305 | 75 | 150 | 1.0 | 1.0 | 0.00 | 0.00 | 0.00 | 26 | 1013.2 |
| 20260510020805 | 75 | 147 | 1.0 | 1.0 | 0.00 | 0.00 | 0.00 | 28 | 1013.2 |
| 20260510015805 | 76 | 131 | 1.0 | 1.0 | 0.00 | 0.00 | 0.00 | 25 | 1013.3 |
| 20260510015306 | 76 | 158 | 1.0 | 1.0 | 0.00 | 0.00 | 0.00 | 32 | 1013.4 |
| 20260510014804 | 77 | 133 | 1.0 | 1.0 | 0.00 | 0.00 | 0.00 | 24 | 1013.3 |
| 20260510014305 | 78 | 146 | 0.0 | 1.0 | 0.00 | 0.00 | 0.00 | 24 | 1013.4 |
| 20260510013304 | 80 | 40 | 0.0 | 1.0 | 0.00 | 0.00 | 0.00 | 21 | 1013.5 |
| 20260510012805 | 79 | 228 | 1.0 | 2.0 | 0.00 | 0.00 | 0.00 | 21 | 1013.5 |
| 20260510012306 | 79 | 84 | 0.0 | 1.0 | 0.00 | 0.00 | 0.00 | 21 | 1013.6 |
| 20260510011805 | 80 | 163 | 0.0 | 1.0 | 0.00 | 0.00 | 0.00 | 24 | 1013.6 |
| 20260510011305 | 80 | 45 | 0.0 | 1.0 | 0.00 | 0.00 | 0.00 | 21 | 1013.6 |
| 20260510010804 | 79 | 217 | 0.0 | 1.0 | 0.00 | 0.00 | 0.00 | 21 | 1013.6 |
| 20260510005804 | 81 | 173 | 1.0 | 1.0 | 0.00 | 0.00 | 0.00 | 19 | 1013.7 |
| 20260510005306 | 81 | 334 | 1.0 | 1.0 | 0.00 | 0.00 | 0.00 | 20 | 1013.8 |
| 20260510004804 | 81 | 30 | 1.0 | 2.0 | 0.00 | 0.00 | 0.00 | 20 | 1013.9 |
| 20260510004304 | 81 | 297 | 1.0 | 2.0 | 0.00 | 0.00 | 0.00 | 19 | 1013.9 |
| 20260510002307 | 81 | 343 | 1.0 | 2.0 | 0.00 | 0.00 | 0.00 | 19 | 1013.9 |
| 20260510001305 | 80 | 354 | 1.0 | 2.0 | 0.00 | 0.00 | 0.00 | 19 | 1014.1 |
| 20260510000305 | 80 | 324 | 1.0 | 2.0 | 0.00 | 0.00 | 0.00 | 19 | 1013.9 |
| 20260509235804 | 80 | 107 | 1.0 | 2.0 | 0.00 | 0.00 | 0.00 | 19 | 1014.0 |
| 20260509235307 | 81 | 149 | 1.0 | 1.0 | 0.00 | 0.00 | 0.00 | 18 | 1014.0 |
| 20260509234804 | 81 | 74 | 1.0 | 2.0 | 0.00 | 0.00 | 0.00 | 18 | 1014.1 |
| 20260509234305 | 82 | 7 | 1.0 | 2.0 | 0.00 | 0.00 | 0.00 | 20 | 1014.2 |
| 20260509233804 | 81 | 7 | 1.0 | 2.0 | 0.00 | 0.00 | 0.00 | 19 | 1014.3 |
| 20260509233304 | 82 | 12 | 1.0 | 2.0 | 0.00 | 0.00 | 0.00 | 19 | 1014.3 |
| 20260509232804 | 82 | 331 | 1.0 | 2.0 | 0.00 | 0.00 | 0.00 | 19 | 1014.4 |
| 20260509232306 | 82 | 12 | 1.0 | 3.0 | 0.00 | 0.00 | 0.00 | 20 | 1014.5 |
| 20260509231805 | 82 | 10 | 1.0 | 2.0 | 0.00 | 0.00 | 0.00 | 20 | 1014.5 |
| 20260509231304 | 81 | 347 | 1.0 | 3.0 | 0.00 | 0.00 | 0.00 | 21 | 1014.7 |
| 20260509230805 | 81 | 14 | 1.0 | 3.0 | 0.00 | 0.00 | 0.00 | 21 | 1014.7 |
| 20260509230305 | 81 | 19 | 1.0 | 2.0 | 0.00 | 0.00 | 0.00 | 22 | 1014.8 |
| 20260509225804 | 81 | 6 | 1.0 | 3.0 | 0.00 | 0.00 | 0.00 | 21 | 1014.9 |
| 20260509224804 | 81 | 28 | 2.0 | 3.0 | 0.00 | 0.00 | 0.00 | 20 | 1015.1 |
| 20260509224304 | 80 | 6 | 2.0 | 3.0 | 0.00 | 0.00 | 0.00 | 22 | 1015.3 |
| 20260509223804 | 81 | 3 | 1.0 | 3.0 | 0.00 | 0.00 | 0.00 | 21 | 1015.3 |
| 20260509223305 | 80 | 31 | 1.0 | 3.0 | 0.00 | 0.00 | 0.00 | 19 | 1015.3 |
| 20260509222804 | 79 | 354 | 1.0 | 3.0 | 0.00 | 0.00 | 0.00 | 19 | 1015.6 |
| 20260509221804 | 79 | 352 | 1.0 | 3.0 | 0.00 | 0.00 | 0.00 | 19 | 1015.8 |
| 20260509220805 | 78 | 16 | 1.0 | 3.0 | 0.00 | 0.00 | 0.00 | 20 | 1015.9 |
| 20260509220304 | 78 | 338 | 2.0 | 3.0 | 0.00 | 0.00 | 0.00 | 20 | 1016.0 |
| 20260509215805 | 77 | 349 | 2.0 | 5.0 | 0.00 | 0.00 | 0.00 | 21 | 1016.0 |
| 20260509215306 | 77 | 40 | 2.0 | 3.0 | 0.00 | 0.00 | 0.00 | 23 | 1016.1 |
| 20260509214805 | 78 | 357 | 2.0 | 3.0 | 0.00 | 0.00 | 0.00 | 22 | 1016.2 |
| 20260509214305 | 77 | 50 | 2.0 | 3.0 | 0.00 | 0.00 | 0.00 | 22 | 1016.2 |
| 20260509213804 | 77 | 351 | 2.0 | 3.0 | 0.00 | 0.00 | 0.00 | 22 | 1016.3 |
| 20260509212804 | 77 | 6 | 2.0 | 3.0 | 0.00 | 0.00 | 0.00 | 24 | 1016.5 |
| 20260509212306 | 77 | 4 | 2.0 | 3.0 | 0.00 | 0.00 | 0.00 | 23 | 1016.5 |
| 20260509211804 | 77 | 0 | 2.0 | 3.0 | 0.00 | 0.00 | 0.00 | 24 | 1016.6 |
| 20260509211304 | 76 | 48 | 1.0 | 2.0 | 0.00 | 0.00 | 0.00 | 24 | 1016.7 |
| 20260509210804 | 76 | 357 | 1.0 | 2.0 | 0.00 | 0.00 | 0.00 | 24 | 1016.8 |
| 20260509205307 | 76 | 25 | 1.0 | 2.0 | 0.00 | 0.00 | 0.00 | 24 | 1017.0 |
| 20260509204805 | 75 | 357 | 1.0 | 3.0 | 0.00 | 0.00 | 0.00 | 25 | 1017.1 |
| 20260509204304 | 75 | 5 | 1.0 | 2.0 | 0.00 | 0.00 | 0.00 | 25 | 1017.2 |
| 20260509203305 | 74 | 40 | 2.0 | 2.0 | 0.00 | 0.00 | 0.00 | 26 | 1017.4 |
| 20260509202306 | 74 | 19 | 1.0 | 2.0 | 0.00 | 0.00 | 0.00 | 28 | 1017.4 |
| 20260509201805 | 73 | 341 | 1.0 | 3.0 | 0.00 | 0.00 | 0.00 | 28 | 1017.5 |
| 20260509201304 | 73 | 357 | 1.0 | 2.0 | 0.00 | 0.00 | 0.00 | 28 | 1017.6 |
| 20260509200304 | 72 | 336 | 1.0 | 3.0 | 0.00 | 0.00 | 0.00 | 32 | 1017.7 |
| 20260509195804 | 72 | 40 | 2.0 | 3.0 | 0.00 | 0.00 | 0.00 | 31 | 1017.8 |
| 20260509195306 | 71 | 348 | 2.0 | 3.0 | 0.00 | 0.00 | 0.00 | 32 | 1018.0 |
| 20260509194804 | 72 | 4 | 1.0 | 2.0 | 0.00 | 0.00 | 0.00 | 30 | 1018.1 |
| 20260509194304 | 72 | 19 | 1.0 | 3.0 | 0.00 | 0.00 | 0.00 | 29 | 1018.2 |
| 20260509193805 | 71 | 340 | 1.0 | 3.0 | 0.00 | 0.00 | 0.00 | 30 | 1018.2 |
| 20260509193305 | 71 | 353 | 1.0 | 3.0 | 0.00 | 0.00 | 0.00 | 29 | 1018.3 |
| 20260509192804 | 70 | 8 | 2.0 | 3.0 | 0.00 | 0.00 | 0.00 | 29 | 1018.4 |
| 20260509192306 | 70 | 24 | 2.0 | 3.0 | 0.00 | 0.00 | 0.00 | 28 | 1018.5 |
| 20260509191804 | 69 | 346 | 1.0 | 2.0 | 0.00 | 0.00 | 0.00 | 32 | 1018.6 |
| 20260509191304 | 69 | 49 | 2.0 | 3.0 | 0.00 | 0.00 | 0.00 | 33 | 1018.5 |
| 20260509190804 | 69 | 341 | 1.0 | 2.0 | 0.00 | 0.00 | 0.00 | 32 | 1018.6 |
| 20260509190304 | 68 | 10 | 2.0 | 3.0 | 0.00 | 0.00 | 0.00 | 33 | 1018.7 |
| 20260509185804 | 68 | 345 | 1.0 | 3.0 | 0.00 | 0.00 | 0.00 | 35 | 1018.8 |
| 20260509184804 | 67 | 40 | 2.0 | 3.0 | 0.00 | 0.00 | 0.00 | 37 | 1018.9 |
| 20260509184305 | 67 | 354 | 2.0 | 3.0 | 0.00 | 0.00 | 0.00 | 37 | 1019.0 |
| 20260509183804 | 66 | 351 | 1.0 | 2.0 | 0.00 | 0.00 | 0.00 | 40 | 1019.0 |
| 20260509183304 | 66 | 11 | 2.0 | 3.0 | 0.00 | 0.00 | 0.00 | 42 | 1019.1 |
| 20260509182804 | 66 | 358 | 2.0 | 3.0 | 0.00 | 0.00 | 0.00 | 41 | 1019.2 |
| 20260509182306 | 66 | 12 | 2.0 | 3.0 | 0.00 | 0.00 | 0.00 | 42 | 1019.2 |
| 20260509181805 | 66 | 12 | 2.0 | 3.0 | 0.00 | 0.00 | 0.00 | 42 | 1019.3 |
| 20260509181304 | 66 | 2 | 2.0 | 3.0 | 0.00 | 0.00 | 0.00 | 43 | 1019.4 |
| 20260509180804 | 65 | 344 | 2.0 | 3.0 | 0.00 | 0.00 | 0.00 | 42 | 1019.4 |
| 20260509175804 | 64 | 355 | 1.0 | 2.0 | 0.00 | 0.00 | 0.00 | 45 | 1019.3 |
| 20260509174804 | 64 | 24 | 1.0 | 3.0 | 0.00 | 0.00 | 0.00 | 45 | 1019.4 |
| 20260509174304 | 64 | 336 | 1.0 | 3.0 | 0.00 | 0.00 | 0.00 | 45 | 1019.4 |
| 20260509173305 | 63 | 0 | 2.0 | 3.0 | 0.00 | 0.00 | 0.00 | 46 | 1019.5 |
| 20260509172805 | 63 | 0 | 2.0 | 3.0 | 0.00 | 0.00 | 0.00 | 46 | 1019.5 |
| 20260509172306 | 62 | 13 | 1.0 | 3.0 | 0.00 | 0.00 | 0.00 | 47 | 1019.5 |
| 20260509171304 | 62 | 0 | 2.0 | 3.0 | 0.00 | 0.00 | 0.00 | 48 | 1019.7 |
| 20260509170805 | 62 | 14 | 1.0 | 2.0 | 0.00 | 0.00 | 0.00 | 48 | 1019.7 |
| 20260509170304 | 62 | 350 | 1.0 | 2.0 | 0.00 | 0.00 | 0.00 | 49 | 1019.8 |
| 20260509165804 | 62 | 4 | 1.0 | 2.0 | 0.00 | 0.00 | 0.00 | 50 | 1020.0 |
| 20260509165306 | 61 | 338 | 1.0 | 2.0 | 0.00 | 0.00 | 0.00 | 50 | 1020.0 |
| 20260509164804 | 60 | 355 | 1.0 | 3.0 | 0.00 | 0.00 | 0.00 | 52 | 1020.1 |
| 20260509164305 | 60 | 329 | 1.0 | 2.0 | 0.00 | 0.00 | 0.00 | 52 | 1020.1 |
| 20260509163305 | 58 | 270 | 1.0 | 3.0 | 0.00 | 0.00 | 0.00 | 55 | 1020.3 |
| 20260509162804 | 58 | 11 | 2.0 | 3.0 | 0.00 | 0.00 | 0.00 | 57 | 1020.3 |
| 20260509162307 | 57 | 271 | 2.0 | 3.0 | 0.00 | 0.00 | 0.00 | 57 | 1020.3 |
| 20260509161805 | 57 | 327 | 1.0 | 2.0 | 0.00 | 0.00 | 0.00 | 58 | 1020.3 |
| 20260509161304 | 57 | 36 | 2.0 | 2.0 | 0.00 | 0.00 | 0.00 | 57 | 1020.4 |
| 20260509160804 | 57 | 0 | 1.0 | 2.0 | 0.00 | 0.00 | 0.00 | 57 | 1020.5 |
| 20260509160304 | 56 | 345 | 1.0 | 3.0 | 0.00 | 0.00 | 0.00 | 59 | 1020.5 |
| 20260509155804 | 56 | 332 | 2.0 | 5.0 | 0.00 | 0.00 | 0.00 | 59 | 1020.5 |
| 20260509155306 | 56 | 297 | 2.0 | 3.0 | 0.00 | 0.00 | 0.00 | 60 | 1020.6 |
| 20260509154804 | 55 | 282 | 5.0 | 7.0 | 0.00 | 0.00 | 0.00 | 60 | 1020.7 |
| 20260509154304 | 55 | 288 | 3.0 | 6.0 | 0.00 | 0.00 | 0.00 | 62 | 1020.7 |
| 20260509153804 | 55 | 265 | 3.0 | 6.0 | 0.00 | 0.00 | 0.00 | 62 | 1020.7 |
| 20260509153305 | 55 | 261 | 3.0 | 5.0 | 0.00 | 0.00 | 0.00 | 62 | 1020.7 |
| 20260509152804 | 54 | 299 | 1.0 | 3.0 | 0.00 | 0.00 | 0.00 | 62 | 1020.7 |
| 20260509152306 | 54 | 274 | 3.0 | 5.0 | 0.00 | 0.00 | 0.00 | 62 | 1020.6 |
| 20260509151805 | 55 | 305 | 3.0 | 3.0 | 0.00 | 0.00 | 0.00 | 61 | 1020.6 |
| 20260509151303 | 55 | 31 | 1.0 | 3.0 | 0.00 | 0.00 | 0.00 | 61 | 1020.6 |
| 20260509150804 | 55 | 56 | 1.0 | 3.0 | 0.00 | 0.00 | 0.00 | 62 | 1020.7 |
| 20260509150305 | 54 | 14 | 1.0 | 2.0 | 0.00 | 0.00 | 0.00 | 63 | 1020.6 |
| 20260509145804 | 54 | 107 | 2.0 | 3.0 | 0.00 | 0.00 | 0.00 | 63 | 1020.6 |
| 20260509145306 | 54 | 61 | 2.0 | 3.0 | 0.00 | 0.00 | 0.00 | 63 | 1020.7 |
| 20260509144804 | 54 | 342 | 2.0 | 3.0 | 0.00 | 0.00 | 0.00 | 65 | 1020.7 |
| 20260509144304 | 54 | 352 | 2.0 | 3.0 | 0.00 | 0.00 | 0.00 | 65 | 1020.7 |
| 20260509143804 | 54 | 344 | 1.0 | 2.0 | 0.00 | 0.00 | 0.00 | 65 | 1020.7 |
| 20260509143304 | 54 | 342 | 1.0 | 2.0 | 0.00 | 0.00 | 0.00 | 65 | 1020.7 |
| 20260509142804 | 54 | 333 | 1.0 | 2.0 | 0.00 | 0.00 | 0.00 | 64 | 1020.7 |
| 20260509142307 | 53 | 21 | 1.0 | 2.0 | 0.00 | 0.00 | 0.00 | 64 | 1020.7 |
| 20260509141804 | 52 | 23 | 1.0 | 2.0 | 0.00 | 0.00 | 0.00 | 65 | 1020.7 |
| 20260509141304 | 52 | 184 | 1.0 | 2.0 | 0.00 | 0.00 | 0.00 | 66 | 1020.7 |
| 20260509140804 | 51 | 179 | 1.0 | 3.0 | 0.00 | 0.00 | 0.00 | 66 | 1020.7 |
| 20260509140304 | 51 | 206 | 1.0 | 2.0 | 0.00 | 0.00 | 0.00 | 70 | 1020.7 |
| 20260509135804 | 51 | 181 | 1.0 | 2.0 | 0.00 | 0.00 | 0.00 | 70 | 1020.7 |
| 20260509135306 | 50 | 170 | 1.0 | 1.0 | 0.00 | 0.00 | 0.00 | 70 | 1020.7 |
| 20260509134804 | 51 | 260 | 1.0 | 1.0 | 0.00 | 0.00 | 0.00 | 70 | 1020.7 |
| 20260509134304 | 51 | 155 | 1.0 | 2.0 | 0.00 | 0.00 | 0.00 | 69 | 1020.7 |
| 20260509133803 | 51 | 244 | 2.0 | 8.0 | 0.00 | 0.00 | 0.00 | 71 | 1020.7 |
| 20260509132804 | 51 | 343 | 1.0 | 3.0 | 0.00 | 0.00 | 0.00 | 72 | 1020.8 |
| 20260509132306 | 51 | 153 | 1.0 | 3.0 | 0.00 | 0.00 | 0.00 | 68 | 1020.8 |
| 20260509131804 | 51 | 304 | 1.0 | 3.0 | 0.00 | 0.00 | 0.00 | 70 | 1020.7 |
| 20260509130804 | 51 | 263 | 6.0 | 10.0 | 0.00 | 0.00 | 0.00 | 69 | 1020.6 |
| 20260509130304 | 51 | 286 | 7.0 | 14.0 | 0.00 | 0.00 | 0.00 | 69 | 1020.5 |
| 20260509125804 | 51 | 266 | 7.0 | 13.0 | 0.00 | 0.00 | 0.00 | 69 | 1020.4 |
| 20260509125307 | 51 | 276 | 6.0 | 10.0 | 0.00 | 0.00 | 0.00 | 70 | 1020.3 |
| 20260509124804 | 51 | 270 | 6.0 | 9.0 | 0.00 | 0.00 | 0.00 | 69 | 1020.3 |
| 20260509124304 | 51 | 283 | 5.0 | 9.0 | 0.00 | 0.00 | 0.00 | 70 | 1020.3 |
| 20260509123804 | 51 | 306 | 5.0 | 8.0 | 0.00 | 0.00 | 0.00 | 70 | 1020.3 |
| 20260509123304 | 52 | 305 | 5.0 | 9.0 | 0.00 | 0.00 | 0.00 | 70 | 1020.2 |
| 20260509122306 | 52 | 316 | 5.0 | 9.0 | 0.00 | 0.00 | 0.00 | 70 | 1020.2 |
| 20260509121804 | 52 | 293 | 4.0 | 7.0 | 0.00 | 0.00 | 0.00 | 69 | 1020.2 |
| 20260509121304 | 52 | 320 | 3.0 | 7.0 | 0.00 | 0.00 | 0.00 | 69 | 1020.1 |
| 20260509120804 | 53 | 315 | 3.0 | 7.0 | 0.00 | 0.00 | 0.00 | 67 | 1020.1 |
| 20260509120304 | 53 | 283 | 5.0 | 7.0 | 0.00 | 0.00 | 0.00 | 66 | 1020.1 |
| 20260509115804 | 53 | 347 | 2.0 | 8.0 | 0.00 | 0.00 | 0.00 | 65 | 1020.0 |
| 20260509115307 | 54 | 237 | 6.0 | 12.0 | 0.00 | 0.00 | 0.00 | 64 | 1020.0 |
| 20260509114806 | 54 | 200 | 6.0 | 12.0 | 0.00 | 0.00 | 0.00 | 63 | 1020.0 |
| 20260509114306 | 54 | 323 | 3.0 | 8.0 | 0.00 | 0.00 | 0.00 | 64 | 1019.9 |
| 20260509113805 | 54 | 281 | 2.0 | 5.0 | 0.00 | 0.00 | 0.00 | 63 | 1019.8 |
| 20260509113305 | 54 | 272 | 5.0 | 10.0 | 0.00 | 0.00 | 0.00 | 62 | 1019.8 |
| 20260509112806 | 54 | 259 | 5.0 | 9.0 | 0.00 | 0.00 | 0.00 | 62 | 1019.8 |
| 20260509111806 | 54 | 219 | 4.0 | 6.0 | 0.00 | 0.00 | 0.00 | 62 | 1019.8 |
| 20260509111306 | 54 | 266 | 3.0 | 7.0 | 0.00 | 0.00 | 0.00 | 61 | 1019.7 |
| 20260509110806 | 55 | 253 | 5.0 | 14.0 | 0.00 | 0.00 | 0.00 | 61 | 1019.7 |
| 20260509110306 | 54 | 207 | 5.0 | 10.0 | 0.00 | 0.00 | 0.00 | 62 | 1019.7 |
| 20260509105805 | 54 | 265 | 6.0 | 12.0 | 0.00 | 0.00 | 0.00 | 61 | 1019.9 |
| 20260509104805 | 55 | 264 | 6.0 | 9.0 | 0.00 | 0.00 | 0.00 | 60 | 1019.8 |
| 20260509104305 | 55 | 227 | 5.0 | 15.0 | 0.00 | 0.00 | 0.00 | 60 | 1019.8 |
| 20260509103805 | 55 | 239 | 5.0 | 8.0 | 0.00 | 0.00 | 0.00 | 60 | 1019.8 |
| 20260509103306 | 55 | 292 | 3.0 | 8.0 | 0.00 | 0.00 | 0.00 | 58 | 1019.8 |